AL3A Weather Reports


Display with metric or nautical units.
time (UTC)temp
F
wind
direction
speed
MPH
gust
MPH
rain 1hr
in
rain 24hr
in
rain mn
in
humidity
%
barometer
mb
20260508010017 67 0.0 2.0 0.00 0.00 0.00 14 1021.0
20260508005037 68 68 1.0 5.0 0.00 0.00 0.00 13 1021.3
20260508004017 69 0.0 2.0 0.00 0.00 0.00 14 1021.4
20260508003017 68 225 1.0 2.0 0.00 0.00 0.00 13 1021.2
20260508002017 68 68 1.0 4.0 0.00 0.00 0.00 14 1021.3
20260508001017 68 68 1.0 3.0 0.00 0.00 0.00 16 1021.2
20260508000017 69 68 1.0 5.0 0.00 0.00 0.00 15 1021.2
20260507235017 69 0.0 2.0 0.00 0.00 0.00 16 1021.8
20260507234017 69 203 1.0 6.0 0.00 0.00 0.00 15 1021.7
20260507233057 68 0.0 4.0 0.00 0.00 0.00 16 1021.7
20260507232017 68 68 2.0 5.0 0.00 0.00 0.00 16 1021.8
20260507231017 71 0.0 4.0 0.00 0.00 0.00 17 1022.3
20260507230017 69 203 1.0 8.0 0.00 0.00 0.00 16 1021.7
20260507225017 67 68 1.0 5.0 0.00 0.00 0.00 17 1021.3
20260507224017 68 68 1.0 5.0 0.00 0.00 0.00 18 1022.0
20260507223017 70 68 1.0 4.0 0.00 0.00 0.00 17 1022.6
20260507222037 70 270 1.0 8.0 0.00 0.00 0.00 17 1022.6
20260507221017 69 293 1.0 3.0 0.00 0.00 0.00 19 1022.3
20260507220017 69 0.0 2.0 0.00 0.00 0.00 21 1022.7
20260507215017 67 90 1.0 3.0 0.00 0.00 0.00 19 1022.8
20260507214017 67 0.0 2.0 0.00 0.00 0.00 18 1023.0
20260507213037 68 0.0 3.0 0.00 0.00 0.00 21 1023.7
20260507212016 66 23 1.0 4.0 0.00 0.00 0.00 20 1023.4
20260507211037 66 45 1.0 4.0 0.00 0.00 0.00 21 1023.5
20260507210016 66 68 3.0 11.0 0.00 0.00 0.00 18 1023.6
20260507205017 66 68 1.0 5.0 0.00 0.00 0.00 22 1023.7
20260507204057 65 68 3.0 13.0 0.00 0.00 0.00 19 1023.3
20260507203016 65 68 2.0 11.0 0.00 0.00 0.00 21 1023.9
20260507202137 65 68 2.0 11.0 0.00 0.00 0.00 20 1023.5
20260507201017 64 68 1.0 6.0 0.00 0.00 0.00 21 1023.5
20260507200017 66 68 1.0 4.0 0.00 0.00 0.00 21 1024.6
20260507195016 64 23 1.0 6.0 0.00 0.00 0.00 20 1024.3
20260507194017 64 23 1.0 7.0 0.00 0.00 0.00 23 1024.4
20260507193016 64 0.0 3.0 0.00 0.00 0.00 21 1024.5
20260507192017 63 315 1.0 6.0 0.00 0.00 0.00 22 1024.6
20260507191036 63 23 1.0 8.0 0.00 0.00 0.00 24 1024.8
20260507190016 62 68 4.0 15.0 0.00 0.00 0.00 22 1024.9
20260507185016 62 68 1.0 4.0 0.00 0.00 0.00 24 1025.0
20260507184016 62 68 1.0 3.0 0.00 0.00 0.00 24 1025.2
20260507183016 62 68 1.0 2.0 0.00 0.00 0.00 24 1025.3
20260507182017 61 68 1.0 4.0 0.00 0.00 0.00 25 1025.2
20260507181016 62 68 1.0 4.0 0.00 0.00 0.00 25 1025.3
20260507180016 61 68 1.0 6.0 0.00 0.00 0.00 26 1026.1
20260507175037 61 68 1.0 2.0 0.00 0.00 0.00 24 1026.1
20260507174057 61 68 1.0 3.0 0.00 0.00 0.00 27 1026.2
20260507173037 62 68 1.0 2.0 0.00 0.00 0.00 25 1026.6
20260507172016 60 68 1.0 3.0 0.00 0.00 0.00 26 1026.2
20260507171016 60 113 1.0 4.0 0.00 0.00 0.00 28 1026.3
20260507170016 59 68 1.0 2.0 0.00 0.00 0.00 29 1027.3
20260507165016 58 68 1.0 2.0 0.00 0.00 0.00 29 1027.0
20260507164016 57 68 1.0 2.0 0.00 0.00 0.00 30 1027.0
20260507163016 57 68 1.0 2.0 0.00 0.00 0.00 29 1027.1
20260507162016 56 68 1.0 2.0 0.00 0.00 0.00 30 1027.3
20260507161016 56 68 1.0 2.0 0.00 0.00 0.00 32 1027.5
20260507160016 56 68 1.0 2.0 0.00 0.00 0.00 32 1029.2
20260507155016 55 68 1.0 4.0 0.00 0.00 0.00 33 1028.6
20260507154036 54 68 1.0 4.0 0.00 0.00 0.00 33 1028.8
20260507153016 53 68 2.0 8.0 0.00 0.00 0.00 33 1028.9
20260507152016 53 68 1.0 6.0 0.00 0.00 0.00 32 1028.9
20260507151016 52 68 1.0 2.0 0.00 0.00 0.00 36 1028.6
20260507150016 48 0.0 0.0 0.00 0.00 0.00 46 1029.2
20260507145016 46 0.0 0.0 0.00 0.00 0.00 50 1029.0
20260507144016 44 0.0 0.0 0.00 0.00 0.00 51 1028.5
20260507143016 42 0.0 1.0 0.00 0.00 0.00 53 1029.0
20260507142056 40 0.0 0.0 0.00 0.00 0.00 58 1028.7
20260507141016 38 0.0 1.0 0.00 0.00 0.00 61 1028.3
20260507140016 36 0.0 0.0 0.00 0.00 0.00 65 1028.8
20260507135016 34 0.0 0.0 0.00 0.00 0.00 67 1028.1
20260507134016 31 0.0 0.0 0.00 0.00 0.00 71 1027.0
20260507133016 29 0.0 0.0 0.00 0.00 0.00 70 1026.0
20260507132156 28 0.0 0.0 0.00 0.00 0.00 73 1026.0
20260507131016 26 0.0 0.0 0.00 0.00 0.00 74 1025.3
20260507130016 25 0.0 0.0 0.00 0.00 0.00 74 1025.5
20260507125016 24 0.0 0.0 0.00 0.00 0.00 76 1025.2
20260507124036 24 0.0 0.0 0.00 0.00 0.00 76 1025.2
20260507123016 24 0.0 0.0 0.00 0.00 0.00 75 1024.6
20260507122015 25 0.0 0.0 0.00 0.00 0.00 76 1024.6
20260507121035 25 0.0 1.0 0.00 0.00 0.00 76 1024.6
20260507120015 25 0.0 1.0 0.00 0.00 0.00 75 1024.5
20260507115015 26 0.0 0.0 0.00 0.00 0.00 75 1025.0
20260507114015 26 0.0 0.0 0.00 0.00 0.00 77 1025.0
20260507113016 25 0.0 0.0 0.00 0.00 0.00 75 1025.1
20260507112015 26 0.0 0.0 0.00 0.00 0.00 74 1025.5
20260507111015 26 0.0 0.0 0.00 0.00 0.00 73 1025.6
20260507110015 27 0.0 0.0 0.00 0.00 0.00 72 1025.6
20260507105055 27 0.0 0.0 0.00 0.00 0.00 74 1026.2
20260507104016 27 0.0 1.0 0.00 0.00 0.00 74 1026.2
20260507103015 26 0.0 1.0 0.00 0.00 0.00 72 1025.6
20260507102015 27 0.0 1.0 0.00 0.00 0.00 74 1025.6
20260507101015 26 0.0 0.0 0.00 0.00 0.00 73 1025.0
20260507100015 26 0.0 0.0 0.00 0.00 0.00 71 1025.1
20260507095055 27 0.0 0.0 0.00 0.00 0.00 69 1025.6
20260507094035 27 0.0 0.0 0.00 0.00 0.00 71 1025.6
20260507093017 27 0.0 1.0 0.00 0.00 0.00 71 1025.7
20260507092037 27 0.0 0.0 0.00 0.00 0.00 70 1025.2
20260507091037 28 0.0 0.0 0.00 0.00 0.00 71 1025.5
20260507090017 28 0.0 0.0 0.00 0.00 0.00 71 1025.7
20260507085017 28 0.0 0.0 0.00 0.00 0.00 71 1025.0
20260507084017 27 0.0 0.0 0.00 0.00 0.00 70 1025.0
20260507083017 28 0.0 2.0 0.00 0.00 0.00 69 1024.9
20260507082017 29 0.0 0.0 0.00 0.00 0.00 70 1025.3
20260507081017 29 0.0 0.0 0.00 0.00 0.00 68 1025.3
20260507080017 29 0.0 0.0 0.00 0.00 0.00 67 1025.2
20260507075017 29 0.0 0.0 0.00 0.00 0.00 71 1024.7
20260507074017 29 0.0 0.0 0.00 0.00 0.00 68 1024.7
20260507073017 30 0.0 1.0 0.00 0.00 0.00 67 1024.7
20260507072017 30 0.0 0.0 0.00 0.00 0.00 66 1025.1
20260507071017 31 0.0 0.0 0.00 0.00 0.00 66 1025.0
20260507070037 32 0.0 0.0 0.00 0.00 0.00 64 1025.5
20260507065016 34 0.0 1.0 0.00 0.00 0.00 62 1025.5
20260507064015 34 0.0 0.0 0.00 0.00 0.00 62 1025.5
20260507063015 33 0.0 2.0 0.00 0.00 0.00 65 1025.4
20260507062015 33 0.0 1.0 0.00 0.00 0.00 65 1024.6
20260507061016 33 0.0 0.0 0.00 0.00 0.00 65 1024.5
20260507060016 34 0.0 0.0 0.00 0.00 0.00 65 1024.3
20260507055015 34 0.0 0.0 0.00 0.00 0.00 64 1023.5
20260507054015 35 0.0 0.0 0.00 0.00 0.00 62 1024.0
20260507053016 36 0.0 0.0 0.00 0.00 0.00 63 1023.9
20260507052016 36 0.0 1.0 0.00 0.00 0.00 62 1023.3
20260507051016 37 0.0 2.0 0.00 0.00 0.00 62 1023.9
20260507050015 37 0.0 0.0 0.00 0.00 0.00 60 1023.9
20260507045016 39 0.0 0.0 0.00 0.00 0.00 59 1023.7
20260507044015 40 0.0 0.0 0.00 0.00 0.00 57 1024.3
20260507043016 41 0.0 0.0 0.00 0.00 0.00 55 1024.3
20260507042036 41 0.0 2.0 0.00 0.00 0.00 54 1023.8
20260507041016 42 0.0 0.0 0.00 0.00 0.00 54 1024.3
20260507040016 44 0.0 1.0 0.00 0.00 0.00 52 1024.2
20260507035055 45 0.0 0.0 0.00 0.00 0.00 49 1024.0
20260507034015 47 0.0 0.0 0.00 0.00 0.00 48 1024.4
20260507033015 48 0.0 0.0 0.00 0.00 0.00 45 1024.8
20260507032015 49 0.0 0.0 0.00 0.00 0.00 44 1024.3
20260507031035 50 0.0 1.0 0.00 0.00 0.00 42 1024.7
20260507030017 50 0.0 1.0 0.00 0.00 0.00 42 1024.6
20260507025057 51 0.0 2.0 0.00 0.00 0.00 41 1024.0
20260507024017 53 0.0 1.0 0.00 0.00 0.00 40 1024.4
20260507023017 54 0.0 1.0 0.00 0.00 0.00 38 1024.6
20260507022017 56 0.0 1.0 0.00 0.00 0.00 36 1024.1
20260507021017 58 0.0 1.0 0.00 0.00 0.00 34 1024.5
20260507020017 59 0.0 1.0 0.00 0.00 0.00 34 1024.5
20260507015037 61 270 4.0 13.0 0.00 0.00 0.00 29 1024.4
20260507014017 61 225 1.0 10.0 0.00 0.00 0.00 30 1024.4
20260507013017 62 0.0 2.0 0.00 0.00 0.00 30 1024.5
20260507012017 61 293 2.0 8.0 0.00 0.00 0.00 31 1024.0
20260507011037 60 23 1.0 3.0 0.00 0.00 0.00 31 1024.0